Wolf Point, MT

7:36 PM MST on November 21, 2017 (GMT -0700)
Clayton

Weather History for KOLF - October, 2012

Change the Weather History Date:

Monday, October 15, 2012

  Actual Average Record
Temperature  
Mean Temperature 55 °F -  
Max Temperature 69 °F 59 °F 75 °F (2010)
Min Temperature 41 °F 30 °F 19 °F (2001)
Degree Days  
Heating Degree Days 10    
Cooling Degree Days 0    
Growing Degree Days 6 (Base 50)    
Moisture  
Dew Point 41 °F    
Average Humidity 60    
Maximum Humidity 85    
Minimum Humidity 35    
Precipitation  
Precipitation T in 0.03 in 0.34 in (1998)
Month to date precipitation 0.01 0.41  
Year to date precipitation 9.15 11.09  
Sea Level Pressure  
Sea Level Pressure 29.68 in    
Wind  
Wind Speed 5 mph (WSW)    
Max Wind Speed 13 mph    
Max Gust Speed 22 mph    
Visibility 10 miles    
Events      
T = Trace of Precipitation, MM = Missing Value Source: NWS Daily Summary

Daily Weather History Graph

Daily Weather History Graph

Search for Another Location

Airport or City:

Trip Planner

Search our weather history database for the weather conditions in past years. The results will help you decide how hot, cold, wet, or windy it might be!

Date:

Astronomy

Oct. 15, 2012 Rise Set
Actual Time 7:22 AM MDT 6:12 PM MDT
Civil Twilight 6:51 AM MDT 6:43 PM MDT
Nautical Twilight 6:15 AM MDT 7:19 PM MDT
Astronomical Twilight 5:39 AM MDT 7:55 PM MDT
Moon 7:41 AM MDT (10/15) 6:07 PM MDT (10/15)
Length of Visible Light 11h 52m
Length of Day
10h 50m
New Moon, 0% of the Moon is Illuminated
Oct 15
New Moon
Oct 21
First Quarter
Oct 29
Full
Nov 6
Last Quarter
Nov 13
New

Hourly Weather History & Observations

Time (MDT) Temp. Windchill Dew Point Humidity Pressure Visibility Wind Dir Wind Speed Gust Speed Precip Events Conditions
12:53 AM 53.1 °F - 41.0 °F 64% 29.73 in 10.0 mi WSW 3.5 mph - N/A   Overcast
1:53 AM 52.0 °F - 41.0 °F 66% 29.72 in 10.0 mi WNW 3.5 mph - N/A   Mostly Cloudy
2:53 AM 53.1 °F - 41.0 °F 64% 29.70 in 10.0 mi Calm Calm - N/A   Mostly Cloudy
3:53 AM 48.9 °F - 39.9 °F 71% 29.70 in 10.0 mi Calm Calm - N/A   Scattered Clouds
4:53 AM 45.0 °F - 37.9 °F 76% 29.69 in 10.0 mi Calm Calm - N/A   Clear
5:53 AM 45.0 °F - 37.0 °F 74% 29.69 in 10.0 mi Calm Calm - N/A   Clear
6:53 AM 44.1 °F 42.5 °F 37.9 °F 79% 29.70 in 10.0 mi SSW 3.5 mph - N/A   Clear
7:53 AM 44.1 °F 40.8 °F 37.9 °F 79% 29.70 in 10.0 mi South 5.8 mph - N/A   Clear
8:53 AM 52.0 °F - 39.9 °F 63% 29.70 in 10.0 mi West 3.5 mph - N/A   Clear
9:53 AM 59.0 °F - 39.9 °F 49% 29.68 in 10.0 mi WSW 9.2 mph - N/A   Clear
10:53 AM 66.0 °F - 39.9 °F 38% 29.67 in 10.0 mi West 9.2 mph - N/A   Clear
11:53 AM 68.0 °F - 39.9 °F 36% 29.66 in 10.0 mi WSW 11.5 mph - N/A   Clear
12:53 PM 69.1 °F - 39.9 °F 35% 29.65 in 10.0 mi WNW 9.2 mph - N/A   Mostly Cloudy
1:53 PM 66.9 °F - 43.0 °F 42% 29.65 in 10.0 mi WSW 6.9 mph - 0.00 in   Overcast
2:53 PM 66.9 °F - 43.0 °F 42% 29.64 in 10.0 mi WSW 5.8 mph - 0.00 in   Overcast
3:53 PM 68.0 °F - 42.1 °F 39% 29.64 in 10.0 mi WSW 11.5 mph 21.9 mph N/A   Mostly Cloudy
4:53 PM 66.9 °F - 42.1 °F 40% 29.65 in 10.0 mi West 12.7 mph - N/A   Overcast
5:53 PM 64.9 °F - 43.0 °F 45% 29.66 in 10.0 mi WSW 8.1 mph - N/A   Clear
6:53 PM 61.0 °F - 43.0 °F 52% 29.67 in 10.0 mi SW 9.2 mph - N/A   Clear
7:53 PM 54.0 °F - 43.0 °F 66% 29.69 in 10.0 mi WSW 5.8 mph - N/A   Clear
8:53 PM 51.1 °F - 42.1 °F 71% 29.69 in 10.0 mi West 4.6 mph - N/A   Clear
9:53 PM 48.9 °F - 41.0 °F 74% 29.68 in 10.0 mi WSW 6.9 mph - N/A   Clear
10:53 PM 46.0 °F 44.8 °F 41.0 °F 83% 29.67 in 10.0 mi SSW 3.5 mph - N/A   Clear
11:53 PM 44.1 °F 40.8 °F 39.9 °F 85% 29.67 in 10.0 mi WSW 5.8 mph - N/A   Clear